Location: Zagreb
(45.8000°N, 16.0000°E)
Time: 10:27:09
(UTC+02:00)

X-37B - Pass Details

Date: 28 June 2022
Orbit: 328 x 343 km, 45.0° (Epoch: 12 August)

Event Time Altitude Azimuth Distance (km) Brightness Sun altitude
Rises 21:54:58 0° 226° (SW) 2,081 4.3 -9.3°
Reaches altitude 10° 21:57:09 10° 211° (SSW) 1,252 3.0 -9.5°
Maximum altitude 21:59:30 24° 154° (SSE) 742 1.4 -9.8°
Enters shadow 22:01:41 11° 100° (E) 1,207 2.6 -10.0°
